Time,TemperatureF,DewpointF,PressureIn,WindDirection,WindDirectionDegrees,WindSpeedMPH,WindSpeedGustMPH,Humidity,HourlyPrecipIn,Conditions,Clouds,dailyrainin,SolarRadiationWatts/m^2,SoftwareType,DateUTC
2013-03-19 00:02:00,51.1,49.4,29.75,NW,310,0.0,0.0,94,0.00,,,0.00,0,WeatherCatV1.02B3,2013-03-19 07:02:00,
2013-03-19 00:06:00,51.1,49.1,29.75,North,351,0.0,1.0,93,0.00,,,0.00,0,WeatherCatV1.02B3,2013-03-19 07:06:00,
2013-03-19 00:12:00,51.1,49.1,29.75,SW,214,0.0,2.0,93,0.00,,,0.00,0,WeatherCatV1.02B3,2013-03-19 07:12:00,
2013-03-19 00:17:00,51.0,49.0,29.75,SW,214,0.0,0.0,93,0.00,,,0.00,0,WeatherCatV1.02B3,2013-03-19 07:17:00,
2013-03-19 00:22:00,50.8,48.8,29.75,SSW,213,0.0,0.0,93,0.00,,,0.00,0,WeatherCatV1.02B3,2013-03-19 07:22:00,
2013-03-19 00:27:00,50.6,48.4,29.75,SSW,213,0.0,0.0,92,0.00,,,0.00,0,WeatherCatV1.02B3,2013-03-19 07:27:00,
2013-03-19 00:32:00,51.4,49.2,29.75,South,172,0.0,0.0,92,0.00,,,0.00,,WeatherCatV1.02B3,2013-03-19 07:32:00,
2013-03-19 00:37:00,51.3,49.1,29.75,South,172,0.0,0.0,92,0.00,,,0.00,,WeatherCatV1.02B3,2013-03-19 07:37:00,
2013-03-19 00:42:00,51.1,48.9,29.75,South,172,0.0,0.0,92,0.00,,,0.00,,WeatherCatV1.02B3,2013-03-19 07:42:00,
2013-03-19 00:47:00,50.9,48.7,29.75,South,172,0.0,0.0,92,0.00,,,0.00,,WeatherCatV1.02B3,2013-03-19 07:47:00,
2013-03-19 00:52:00,50.7,48.5,29.75,South,172,0.0,0.0,92,0.00,,,0.00,,WeatherCatV1.02B3,2013-03-19 07:52:00,
2013-03-19 00:57:00,50.4,48.2,29.75,South,172,0.0,0.0,92,0.00,,,0.00,,WeatherCatV1.02B3,2013-03-19 07:57:00,
2013-03-19 01:02:00,50.2,48.0,29.75,South,172,0.0,0.0,92,0.00,,,0.00,,WeatherCatV1.02B3,2013-03-19 08:02:00,
2013-03-19 01:07:00,50.1,47.9,29.75,South,172,0.0,0.0,92,0.00,,,0.00,,WeatherCatV1.02B3,2013-03-19 08:07:00,
2013-03-19 01:12:00,49.9,47.7,29.75,South,172,0.0,0.0,92,0.00,,,0.00,,WeatherCatV1.02B3,2013-03-19 08:12:00,
2013-03-19 01:17:00,49.7,47.5,29.75,South,172,0.0,0.0,92,0.00,,,0.00,,WeatherCatV1.02B3,2013-03-19 08:17:00,
2013-03-19 01:22:00,49.5,47.3,29.75,South,172,0.0,0.0,92,0.00,,,0.00,,WeatherCatV1.02B3,2013-03-19 08:22:00,
2013-03-19 01:27:00,49.6,47.4,29.75,South,172,0.0,0.0,92,0.00,,,0.00,,WeatherCatV1.02B3,2013-03-19 08:27:00,
2013-03-19 01:32:00,49.6,47.7,29.75,South,172,0.0,0.0,93,0.00,,,0.00,,WeatherCatV1.02B3,2013-03-19 08:32:00,
2013-03-19 01:37:00,49.6,47.7,29.75,South,172,0.0,0.0,93,0.00,,,0.00,,WeatherCatV1.02B3,2013-03-19 08:37:00,
2013-03-19 01:42:00,49.7,48.0,29.75,South,172,0.0,0.0,94,0.00,,,0.00,,WeatherCatV1.02B3,2013-03-19 08:42:00,
2013-03-19 01:47:00,49.9,48.2,29.75,South,172,0.0,0.0,94,0.00,,,0.00,,WeatherCatV1.02B3,2013-03-19 08:47:00,
2013-03-19 01:52:00,50.0,48.3,29.75,South,172,0.0,0.0,94,0.00,,,0.00,,WeatherCatV1.02B3,2013-03-19 08:52:00,
2013-03-19 01:57:00,50.0,48.3,29.75,South,172,0.0,0.0,94,0.00,,,0.00,,WeatherCatV1.02B3,2013-03-19 08:57:00,
2013-03-19 02:02:00,50.0,48.3,29.75,South,172,0.0,0.0,94,0.00,,,0.00,,WeatherCatV1.02B3,2013-03-19 09:02:00,
2013-03-19 02:07:00,50.0,48.1,29.75,South,172,0.0,0.0,93,0.00,,,0.00,,WeatherCatV1.02B3,2013-03-19 09:07:00,
2013-03-19 02:12:00,49.9,48.0,29.75,South,172,0.0,0.0,93,0.00,,,0.00,,WeatherCatV1.02B3,2013-03-19 09:12:00,
2013-03-19 02:17:00,49.8,47.9,29.75,South,172,0.0,0.0,93,0.00,,,0.00,,WeatherCatV1.02B3,2013-03-19 09:17:00,
2013-03-19 02:22:00,49.8,48.1,29.75,South,172,0.0,0.0,94,0.00,,,0.00,,WeatherCatV1.02B3,2013-03-19 09:22:00,
2013-03-19 02:27:00,49.7,47.8,29.75,South,172,0.0,0.0,93,0.00,,,0.00,,WeatherCatV1.02B3,2013-03-19 09:27:00,
2013-03-19 02:32:00,49.6,47.7,29.75,South,172,0.0,0.0,93,0.00,,,0.00,,WeatherCatV1.02B3,2013-03-19 09:32:00,
2013-03-19 02:37:00,49.4,47.5,29.75,South,172,0.0,0.0,93,0.00,,,0.00,,WeatherCatV1.02B3,2013-03-19 09:37:00,
2013-03-19 02:42:00,49.3,47.4,29.75,South,172,0.0,0.0,93,0.00,,,0.00,,WeatherCatV1.02B3,2013-03-19 09:42:00,
2013-03-19 02:47:00,49.3,47.6,29.75,South,172,0.0,0.0,94,0.00,,,0.00,,WeatherCatV1.02B3,2013-03-19 09:47:00,
2013-03-19 02:52:00,49.4,47.7,29.75,South,172,0.0,0.0,94,0.00,,,0.00,,WeatherCatV1.02B3,2013-03-19 09:52:00,
2013-03-19 02:56:00,49.4,47.7,29.75,South,172,0.0,0.0,94,0.00,,,0.00,,WeatherCatV1.02B3,2013-03-19 09:56:00,
2013-03-19 03:02:00,49.2,47.5,29.75,South,172,0.0,0.0,94,0.00,,,0.00,,WeatherCatV1.02B3,2013-03-19 10:02:00,
2013-03-19 03:07:00,49.2,47.5,29.75,South,172,0.0,0.0,94,0.00,,,0.00,,WeatherCatV1.02B3,2013-03-19 10:07:00,
2013-03-19 03:12:00,49.1,47.4,29.75,South,172,0.0,0.0,94,0.00,,,0.00,,WeatherCatV1.02B3,2013-03-19 10:12:00,
2013-03-19 03:17:00,49.0,47.3,29.75,South,172,0.0,0.0,94,0.00,,,0.00,,WeatherCatV1.02B3,2013-03-19 10:17:00,
2013-03-19 03:22:00,48.9,47.2,29.75,South,172,0.0,1.0,94,0.00,,,0.00,,WeatherCatV1.02B3,2013-03-19 10:22:00,
2013-03-19 03:27:00,48.6,47.0,29.75,South,172,0.0,0.0,94,0.00,,,0.00,,WeatherCatV1.02B3,2013-03-19 10:27:00,
2013-03-19 03:32:00,48.5,46.9,29.75,South,172,0.0,0.0,94,0.00,,,0.00,,WeatherCatV1.02B3,2013-03-19 10:32:00,
2013-03-19 03:37:00,48.5,46.9,29.75,South,172,0.0,0.0,94,0.00,,,0.00,,WeatherCatV1.02B3,2013-03-19 10:37:00,
2013-03-19 03:42:00,48.2,46.6,29.75,South,172,0.0,0.0,94,0.00,,,0.00,,WeatherCatV1.02B3,2013-03-19 10:42:00,
2013-03-19 03:47:00,47.9,46.0,29.75,South,172,0.0,0.0,93,0.00,,,0.00,,WeatherCatV1.02B3,2013-03-19 10:47:00,
2013-03-19 03:52:00,47.6,45.7,29.82,South,172,0.0,0.0,93,0.00,,,0.00,,WeatherCatV1.02B3,2013-03-19 10:52:00,
2013-03-19 03:57:00,47.6,46.0,29.82,South,172,0.0,0.0,94,0.00,,,0.00,,WeatherCatV1.02B3,2013-03-19 10:57:00,
2013-03-19 04:02:00,47.5,45.9,29.81,South,172,0.0,0.0,94,0.00,,,0.00,,WeatherCatV1.02B3,2013-03-19 11:02:00,
2013-03-19 04:07:00,47.4,45.8,29.81,South,172,0.0,0.0,94,0.00,,,0.00,,WeatherCatV1.02B3,2013-03-19 11:07:00,
2013-03-19 04:12:00,47.3,45.7,29.81,South,172,0.0,0.0,94,0.00,,,0.00,,WeatherCatV1.02B3,2013-03-19 11:12:00,
2013-03-19 04:17:00,47.3,45.7,29.80,South,172,0.0,1.0,94,0.00,,,0.00,,WeatherCatV1.02B3,2013-03-19 11:17:00,
2013-03-19 04:22:00,47.1,45.5,29.80,South,172,0.0,0.0,94,0.00,,,0.00,,WeatherCatV1.02B3,2013-03-19 11:22:00,
2013-03-19 04:27:00,47.0,45.4,29.81,South,172,0.0,0.0,94,0.00,,,0.00,,WeatherCatV1.02B3,2013-03-19 11:27:00,
2013-03-19 04:32:00,47.0,45.6,29.81,South,172,0.0,0.0,95,0.00,,,0.00,,WeatherCatV1.02B3,2013-03-19 11:32:00,
2013-03-19 04:37:00,46.8,45.2,29.81,South,172,0.0,0.0,94,0.00,,,0.00,,WeatherCatV1.02B3,2013-03-19 11:37:00,
2013-03-19 04:42:00,46.7,45.1,29.81,South,172,0.0,0.0,94,0.00,,,0.00,,WeatherCatV1.02B3,2013-03-19 11:42:00,
2013-03-19 04:47:00,46.6,45.0,29.81,South,172,0.0,0.0,94,0.00,,,0.00,,WeatherCatV1.02B3,2013-03-19 11:47:00,
2013-03-19 04:52:00,46.4,44.8,29.81,South,172,0.0,0.0,94,0.00,,,0.00,,WeatherCatV1.02B3,2013-03-19 11:52:00,
2013-03-19 04:57:00,46.2,44.6,29.81,South,172,0.0,0.0,94,0.00,,,0.00,,WeatherCatV1.02B3,2013-03-19 11:57:00,
2013-03-19 05:02:00,46.0,44.4,29.81,South,172,0.0,0.0,94,0.00,,,0.00,,WeatherCatV1.02B3,2013-03-19 12:02:00,
2013-03-19 05:07:00,45.9,44.3,29.81,South,172,0.0,0.0,94,0.00,,,0.00,,WeatherCatV1.02B3,2013-03-19 12:07:00,
2013-03-19 05:12:00,45.7,44.1,29.81,South,172,0.0,0.0,94,0.00,,,0.00,,WeatherCatV1.02B3,2013-03-19 12:12:00,
2013-03-19 05:17:00,45.8,44.4,29.81,South,172,0.0,1.0,95,0.00,,,0.00,,WeatherCatV1.02B3,2013-03-19 12:17:00,
2013-03-19 05:22:00,45.7,44.3,29.81,South,172,0.0,0.0,95,0.00,,,0.00,,WeatherCatV1.02B3,2013-03-19 12:22:00,
2013-03-19 05:27:00,45.5,43.9,29.81,South,172,0.0,1.0,94,0.00,,,0.00,,WeatherCatV1.02B3,2013-03-19 12:27:00,
2013-03-19 05:32:00,45.4,44.1,29.81,South,172,0.0,0.0,95,0.00,,,0.00,,WeatherCatV1.02B3,2013-03-19 12:32:00,
2013-03-19 05:37:00,45.5,44.2,29.81,South,172,0.0,0.0,95,0.00,,,0.00,,WeatherCatV1.02B3,2013-03-19 12:37:00,
2013-03-19 05:42:00,45.4,44.1,29.81,South,172,1.0,3.0,95,0.00,,,0.00,,WeatherCatV1.02B3,2013-03-19 12:42:00,
2013-03-19 05:47:00,45.8,44.4,29.81,South,172,0.0,0.0,95,0.00,,,0.00,,WeatherCatV1.02B3,2013-03-19 12:47:00,
2013-03-19 05:52:00,45.7,44.3,29.81,South,172,0.0,0.0,95,0.00,,,0.00,,WeatherCatV1.02B3,2013-03-19 12:52:00,
2013-03-19 05:57:00,45.7,44.3,29.81,South,172,0.0,0.0,95,0.00,,,0.00,,WeatherCatV1.02B3,2013-03-19 12:57:00,
2013-03-19 06:02:00,45.5,44.2,29.81,South,172,0.0,0.0,95,0.00,,,0.00,,WeatherCatV1.02B3,2013-03-19 13:02:00,
2013-03-19 06:07:00,45.4,44.1,29.81,South,172,0.0,0.0,95,0.00,,,0.00,,WeatherCatV1.02B3,2013-03-19 13:07:00,
2013-03-19 06:12:00,45.3,44.0,29.81,South,172,0.0,0.0,95,0.00,,,0.00,,WeatherCatV1.02B3,2013-03-19 13:12:00,
2013-03-19 06:17:00,45.3,44.0,29.81,South,172,0.0,0.0,95,0.00,,,0.00,,WeatherCatV1.02B3,2013-03-19 13:17:00,
2013-03-19 06:22:00,45.2,43.9,29.81,South,172,0.0,0.0,95,0.00,,,0.00,,WeatherCatV1.02B3,2013-03-19 13:22:00,
2013-03-19 06:27:00,45.0,43.7,29.81,South,172,0.0,0.0,95,0.00,,,0.00,,WeatherCatV1.02B3,2013-03-19 13:27:00,
2013-03-19 06:32:00,44.8,43.5,29.81,South,172,0.0,0.0,95,0.00,,,0.00,,WeatherCatV1.02B3,2013-03-19 13:32:00,
2013-03-19 06:37:00,44.6,43.3,29.81,South,172,0.0,0.0,95,0.00,,,0.00,,WeatherCatV1.02B3,2013-03-19 13:37:00,
2013-03-19 06:42:00,44.5,43.2,29.81,South,172,0.0,0.0,95,0.00,,,0.00,,WeatherCatV1.02B3,2013-03-19 13:42:00,
2013-03-19 06:47:00,44.4,43.1,29.81,South,172,0.0,0.0,95,0.00,,,0.00,,WeatherCatV1.02B3,2013-03-19 13:47:00,
2013-03-19 06:52:00,44.3,43.0,29.81,South,172,0.0,0.0,95,0.00,,,0.00,,WeatherCatV1.02B3,2013-03-19 13:52:00,
2013-03-19 06:57:00,44.3,43.0,29.81,South,172,0.0,0.0,95,0.00,,,0.00,,WeatherCatV1.02B3,2013-03-19 13:57:00,
2013-03-19 07:02:00,44.3,43.0,29.81,South,172,0.0,0.0,95,0.00,,,0.00,,WeatherCatV1.02B3,2013-03-19 14:02:00,
2013-03-19 07:07:00,44.3,43.0,29.81,South,172,0.0,0.0,95,0.00,,,0.00,,WeatherCatV1.02B3,2013-03-19 14:07:00,
2013-03-19 07:12:00,44.1,42.8,29.81,South,172,2.0,3.0,95,0.00,,,0.00,,WeatherCatV1.02B3,2013-03-19 14:12:00,
2013-03-19 07:17:00,44.5,43.2,29.81,South,172,2.0,3.0,95,0.00,,,0.00,,WeatherCatV1.02B3,2013-03-19 14:17:00,
2013-03-19 07:22:00,44.6,43.3,29.81,South,172,0.0,0.0,95,0.00,,,0.00,,WeatherCatV1.02B3,2013-03-19 14:22:00,
2013-03-19 07:27:00,44.6,43.3,29.81,South,172,0.0,0.0,95,0.00,,,0.00,,WeatherCatV1.02B3,2013-03-19 14:27:00,
2013-03-19 07:32:00,44.7,43.4,29.81,South,172,0.0,0.0,95,0.00,,,0.00,,WeatherCatV1.02B3,2013-03-19 14:32:00,
2013-03-19 07:36:00,44.7,43.6,29.81,South,172,0.0,0.0,96,0.00,,,0.00,,WeatherCatV1.02B3,2013-03-19 14:36:00,
2013-03-19 07:42:00,44.6,43.3,29.81,South,172,0.0,0.0,95,0.00,,,0.00,,WeatherCatV1.02B3,2013-03-19 14:42:00,
2013-03-19 07:47:00,44.6,43.3,29.81,South,172,0.0,0.0,95,0.00,,,0.00,,WeatherCatV1.02B3,2013-03-19 14:47:00,
2013-03-19 07:52:00,44.6,43.3,29.81,South,172,0.0,0.0,95,0.00,,,0.00,,WeatherCatV1.02B3,2013-03-19 14:52:00,
2013-03-19 07:57:00,44.7,43.4,29.81,South,172,0.0,0.0,95,0.00,,,0.00,,WeatherCatV1.02B3,2013-03-19 14:57:00,
2013-03-19 08:02:00,44.8,43.7,29.81,South,172,0.0,0.0,96,0.00,,,0.00,,WeatherCatV1.02B3,2013-03-19 15:02:00,
2013-03-19 08:07:00,45.0,43.9,29.81,South,172,0.0,1.0,96,0.00,,,0.00,,WeatherCatV1.02B3,2013-03-19 15:07:00,
2013-03-19 08:12:00,45.3,44.2,29.81,South,172,0.0,0.0,96,0.00,,,0.00,,WeatherCatV1.02B3,2013-03-19 15:12:00,
2013-03-19 08:17:00,45.5,44.4,29.81,South,172,0.0,0.0,96,0.00,,,0.00,,WeatherCatV1.02B3,2013-03-19 15:17:00,
2013-03-19 08:22:00,45.6,44.5,29.81,South,172,0.0,0.0,96,0.00,,,0.00,,WeatherCatV1.02B3,2013-03-19 15:22:00,
2013-03-19 08:27:00,45.9,44.8,29.81,South,172,0.0,0.0,96,0.00,,,0.00,,WeatherCatV1.02B3,2013-03-19 15:27:00,
2013-03-19 08:32:00,46.2,45.1,29.81,South,172,0.0,0.0,96,0.00,,,0.00,,WeatherCatV1.02B3,2013-03-19 15:32:00,
2013-03-19 08:37:00,46.7,45.6,29.81,South,172,0.0,0.0,96,0.00,,,0.00,,WeatherCatV1.02B3,2013-03-19 15:37:00,
2013-03-19 08:42:00,47.0,45.9,29.81,South,172,0.0,0.0,96,0.00,,,0.00,,WeatherCatV1.02B3,2013-03-19 15:42:00,
2013-03-19 08:47:00,47.6,46.5,29.81,South,172,0.0,0.0,96,0.00,,,0.00,,WeatherCatV1.02B3,2013-03-19 15:47:00,
2013-03-19 08:52:00,47.9,47.1,29.81,South,172,0.0,0.0,97,0.00,,,0.00,,WeatherCatV1.02B3,2013-03-19 15:52:00,
2013-03-19 08:57:00,48.2,47.4,29.81,South,172,0.0,0.0,97,0.00,,,0.00,,WeatherCatV1.02B3,2013-03-19 15:57:00,
2013-03-19 09:02:00,48.7,47.9,29.81,South,172,0.0,0.0,97,0.00,,,0.00,,WeatherCatV1.02B3,2013-03-19 16:02:00,
2013-03-19 09:07:00,49.2,48.4,29.81,South,172,0.0,0.0,97,0.00,,,0.00,,WeatherCatV1.02B3,2013-03-19 16:07:00,
2013-03-19 09:12:00,49.7,48.9,29.81,South,172,0.0,0.0,97,0.00,,,0.00,,WeatherCatV1.02B3,2013-03-19 16:12:00,
2013-03-19 09:17:00,50.3,49.5,29.81,South,172,0.0,0.0,97,0.00,,,0.00,,WeatherCatV1.02B3,2013-03-19 16:17:00,
2013-03-19 09:22:00,50.9,50.1,29.81,South,172,0.0,0.0,97,0.00,,,0.00,,WeatherCatV1.02B3,2013-03-19 16:22:00,
2013-03-19 09:27:00,51.5,50.7,29.81,South,172,0.0,0.0,97,0.00,,,0.00,,WeatherCatV1.02B3,2013-03-19 16:27:00,
2013-03-19 09:32:00,51.9,51.1,29.81,South,172,0.0,0.0,97,0.00,,,0.00,,WeatherCatV1.02B3,2013-03-19 16:32:00,
2013-03-19 09:37:00,52.4,51.6,29.81,South,172,0.0,1.0,97,0.00,,,0.00,,WeatherCatV1.02B3,2013-03-19 16:37:00,
2013-03-19 09:42:00,53.0,52.2,29.81,South,173,0.0,0.0,97,0.00,,,0.00,,WeatherCatV1.02B3,2013-03-19 16:42:00,
2013-03-19 09:47:00,53.7,52.9,29.81,South,173,0.0,0.0,97,0.00,,,0.00,,WeatherCatV1.02B3,2013-03-19 16:47:00,
2013-03-19 09:52:00,54.4,53.6,29.81,South,172,0.0,0.0,97,0.00,,,0.00,,WeatherCatV1.02B3,2013-03-19 16:52:00,
2013-03-19 09:57:00,55.2,53.8,29.81,South,173,1.0,2.0,95,0.00,,,0.00,,WeatherCatV1.02B3,2013-03-19 16:57:00,
2013-03-19 10:02:00,55.7,53.4,29.81,SSE,157,0.0,1.0,92,0.00,,,0.00,,WeatherCatV1.02B3,2013-03-19 17:02:00,
2013-03-19 10:07:00,56.1,53.2,29.81,SSE,157,3.0,3.0,90,0.00,,,0.00,,WeatherCatV1.02B3,2013-03-19 17:07:00,
2013-03-19 10:12:00,56.5,53.0,29.81,SSE,157,0.0,1.0,88,0.00,,,0.00,,WeatherCatV1.02B3,2013-03-19 17:12:00,
2013-03-19 10:17:00,57.2,53.7,29.81,SSE,157,0.0,0.0,88,0.00,,,0.00,,WeatherCatV1.02B3,2013-03-19 17:17:00,
2013-03-19 10:22:00,57.8,53.6,29.81,SSE,157,0.0,1.0,86,0.00,,,0.00,,WeatherCatV1.02B3,2013-03-19 17:22:00,
2013-03-19 10:27:00,58.3,53.5,29.81,SSE,157,0.0,3.0,84,0.00,,,0.00,,WeatherCatV1.02B3,2013-03-19 17:27:00,
2013-03-19 10:32:00,58.5,53.7,29.81,SSE,157,0.0,0.0,84,0.00,,,0.00,,WeatherCatV1.02B3,2013-03-19 17:32:00,
2013-03-19 10:37:00,59.0,53.8,29.81,SSE,157,1.0,3.0,83,0.00,,,0.00,,WeatherCatV1.02B3,2013-03-19 17:37:00,
2013-03-19 10:42:00,59.2,53.4,29.81,SSE,156,0.0,3.0,81,0.00,,,0.00,,WeatherCatV1.02B3,2013-03-19 17:42:00,
2013-03-19 10:47:00,59.6,54.1,29.81,SSE,156,0.0,0.0,82,0.00,,,0.00,,WeatherCatV1.02B3,2013-03-19 17:47:00,
2013-03-19 10:52:00,59.8,53.6,29.81,SSE,156,0.0,1.0,80,0.00,,,0.00,,WeatherCatV1.02B3,2013-03-19 17:52:00,
2013-03-19 10:57:00,60.4,54.5,29.81,SSE,156,0.0,1.0,81,0.00,,,0.00,,WeatherCatV1.02B3,2013-03-19 17:57:00,
2013-03-19 11:02:00,60.9,54.3,29.81,SSE,156,0.0,0.0,79,0.00,,,0.00,,WeatherCatV1.02B3,2013-03-19 18:02:00,
2013-03-19 11:07:00,61.8,55.2,29.81,SSE,156,0.0,0.0,79,0.00,,,0.00,,WeatherCatV1.02B3,2013-03-19 18:07:00,
2013-03-19 11:12:00,62.2,54.9,29.81,SSE,156,0.0,1.0,77,0.00,,,0.00,,WeatherCatV1.02B3,2013-03-19 18:12:00,
2013-03-19 11:17:00,62.7,54.7,29.81,SSE,156,0.0,0.0,75,0.00,,,0.00,,WeatherCatV1.02B3,2013-03-19 18:17:00,
2013-03-19 11:22:00,63.3,55.2,29.81,SSE,156,0.0,0.0,75,0.00,,,0.00,,WeatherCatV1.02B3,2013-03-19 18:22:00,
2013-03-19 11:27:00,63.7,54.9,29.81,SSE,156,0.0,0.0,73,0.00,,,0.00,,WeatherCatV1.02B3,2013-03-19 18:27:00,
2013-03-19 11:32:00,64.0,55.2,29.81,SSE,156,0.0,1.0,73,0.00,,,0.00,,WeatherCatV1.02B3,2013-03-19 18:32:00,
2013-03-19 11:37:00,64.5,55.6,29.81,SSE,156,0.0,2.0,73,0.00,,,0.00,,WeatherCatV1.02B3,2013-03-19 18:37:00,
2013-03-19 11:42:00,64.9,55.7,29.81,SSE,156,1.0,4.0,72,0.00,,,0.00,,WeatherCatV1.02B3,2013-03-19 18:42:00,
2013-03-19 11:47:00,64.9,54.9,29.81,SSE,156,0.0,2.0,70,0.00,,,0.00,,WeatherCatV1.02B3,2013-03-19 18:47:00,
2013-03-19 11:52:00,65.2,54.8,29.81,SSE,156,0.0,1.0,69,0.00,,,0.00,,WeatherCatV1.02B3,2013-03-19 18:52:00,
2013-03-19 11:57:00,65.9,55.0,29.81,South,169,3.0,3.0,68,0.00,,,0.00,,WeatherCatV1.02B3,2013-03-19 18:57:00,
2013-03-19 12:02:00,66.3,54.2,29.81,South,175,0.0,5.0,65,0.00,,,0.00,,WeatherCatV1.02B3,2013-03-19 19:02:00,
2013-03-19 12:07:00,66.7,55.0,29.81,South,180,0.0,0.0,66,0.00,,,0.00,,WeatherCatV1.02B3,2013-03-19 19:07:00,
2013-03-19 12:12:00,67.2,54.6,29.81,SSW,200,0.0,3.0,64,0.00,,,0.00,,WeatherCatV1.02B3,2013-03-19 19:12:00,
2013-03-19 12:17:00,67.5,54.5,29.81,SSW,209,0.0,5.0,63,0.00,,,0.00,,WeatherCatV1.02B3,2013-03-19 19:17:00,
2013-03-19 12:22:00,67.6,55.0,29.81,SW,232,5.0,5.0,64,0.00,,,0.00,,WeatherCatV1.02B3,2013-03-19 19:22:00,
2013-03-19 12:27:00,67.9,55.7,29.81,SW,216,2.0,5.0,65,0.00,,,0.00,,WeatherCatV1.02B3,2013-03-19 19:27:00,
2013-03-19 12:32:00,67.9,54.8,29.81,SW,217,2.0,5.0,63,0.00,,,0.00,,WeatherCatV1.02B3,2013-03-19 19:32:00,
2013-03-19 12:37:00,67.7,55.9,29.81,SW,219,3.0,4.0,66,0.00,,,0.00,,WeatherCatV1.02B3,2013-03-19 19:37:00,
2013-03-19 12:42:00,67.9,55.3,29.81,SW,230,1.0,5.0,64,0.00,,,0.00,,WeatherCatV1.02B3,2013-03-19 19:42:00,
2013-03-19 12:47:00,68.3,56.1,29.81,SW,227,0.0,3.0,65,0.00,,,0.00,,WeatherCatV1.02B3,2013-03-19 19:47:00,
2013-03-19 12:52:00,68.8,55.7,29.81,SW,225,1.0,5.0,63,0.00,,,0.00,,WeatherCatV1.02B3,2013-03-19 19:52:00,
2013-03-19 12:57:00,68.7,55.1,29.81,SW,222,0.0,5.0,62,0.00,,,0.00,,WeatherCatV1.02B3,2013-03-19 19:57:00,
2013-03-19 13:02:00,68.7,55.6,29.81,SSW,213,4.0,4.0,63,0.00,,,0.00,,WeatherCatV1.02B3,2013-03-19 20:02:00,
2013-03-19 13:07:00,68.9,56.6,29.81,SSW,199,7.0,7.0,65,0.00,,,0.00,,WeatherCatV1.02B3,2013-03-19 20:07:00,
2013-03-19 13:12:00,69.0,55.9,29.81,SSW,210,5.0,7.0,63,0.00,,,0.00,,WeatherCatV1.02B3,2013-03-19 20:12:00,
2013-03-19 13:17:00,69.0,55.4,29.81,SW,215,3.0,7.0,62,0.00,,,0.00,,WeatherCatV1.02B3,2013-03-19 20:17:00,
2013-03-19 13:22:00,69.1,54.6,29.81,SW,217,1.0,7.0,60,0.00,,,0.00,,WeatherCatV1.02B3,2013-03-19 20:22:00,
2013-03-19 13:27:00,69.6,53.2,29.81,SSW,212,4.0,10.0,56,0.00,,,0.00,,WeatherCatV1.02B3,2013-03-19 20:27:00,
2013-03-19 13:32:00,69.7,51.8,29.81,SSW,204,3.0,6.0,53,0.00,,,0.00,,WeatherCatV1.02B3,2013-03-19 20:32:00,
2013-03-19 13:37:00,69.3,52.4,29.81,SSW,213,5.0,7.0,55,0.00,,,0.00,,WeatherCatV1.02B3,2013-03-19 20:37:00,
2013-03-19 13:42:00,68.9,52.5,29.81,SW,219,3.0,10.0,56,0.00,,,0.00,,WeatherCatV1.02B3,2013-03-19 20:42:00,
2013-03-19 13:47:00,68.8,51.0,29.81,SW,225,5.0,7.0,53,0.00,,,0.00,,WeatherCatV1.02B3,2013-03-19 20:47:00,
2013-03-19 13:52:00,68.7,51.9,29.81,SW,214,0.0,7.0,55,0.00,,,0.00,,WeatherCatV1.02B3,2013-03-19 20:52:00,
2013-03-19 13:57:00,68.9,51.6,29.81,SW,214,3.0,3.0,54,0.00,,,0.00,,WeatherCatV1.02B3,2013-03-19 20:57:00,
2013-03-19 14:02:00,69.2,51.3,29.81,SW,223,6.0,7.0,53,0.00,,,0.00,,WeatherCatV1.02B3,2013-03-19 21:02:00,
2013-03-19 14:07:00,69.0,50.6,29.81,WSW,240,0.0,9.0,52,0.00,,,0.00,,WeatherCatV1.02B3,2013-03-19 21:07:00,
2013-03-19 14:12:00,68.9,51.6,29.81,SW,236,6.0,11.0,54,0.00,,,0.00,,WeatherCatV1.02B3,2013-03-19 21:12:00,
2013-03-19 14:17:00,68.4,51.1,29.81,SW,223,7.0,8.0,54,0.00,,,0.00,,WeatherCatV1.02B3,2013-03-19 21:17:00,
2013-03-19 14:22:00,68.1,51.3,29.81,SW,234,3.0,10.0,55,0.00,,,0.00,,WeatherCatV1.02B3,2013-03-19 21:22:00,
2013-03-19 14:27:00,68.0,50.7,29.81,SW,222,10.0,10.0,54,0.00,,,0.00,,WeatherCatV1.02B3,2013-03-19 21:27:00,
2013-03-19 14:32:00,68.1,50.3,29.81,SW,220,7.0,10.0,53,0.00,,,0.00,,WeatherCatV1.02B3,2013-03-19 21:32:00,
2013-03-19 14:37:00,67.9,49.1,29.81,SW,222,7.0,11.0,51,0.00,,,0.00,,WeatherCatV1.02B3,2013-03-19 21:37:00,
2013-03-19 14:42:00,67.7,49.9,29.81,South,180,5.0,6.0,53,0.00,,,0.00,,WeatherCatV1.02B3,2013-03-19 21:42:00,
2013-03-19 14:47:00,68.1,49.8,29.81,SW,225,5.0,7.0,52,0.00,,,0.00,,WeatherCatV1.02B3,2013-03-19 21:47:00,
2013-03-19 14:52:00,68.5,50.7,29.81,SW,221,4.0,7.0,53,0.00,,,0.00,,WeatherCatV1.02B3,2013-03-19 21:52:00,
2013-03-19 14:57:00,68.5,51.7,29.81,SW,216,1.0,5.0,55,0.00,,,0.00,,WeatherCatV1.02B3,2013-03-19 21:57:00,
2013-03-19 15:02:00,68.5,50.7,29.81,SW,223,4.0,6.0,53,0.00,,,0.00,,WeatherCatV1.02B3,2013-03-19 22:02:00,
2013-03-19 15:07:00,68.7,51.4,29.81,SSW,208,3.0,3.0,54,0.00,,,0.00,,WeatherCatV1.02B3,2013-03-19 22:07:00,
2013-03-19 15:12:00,68.8,51.0,29.81,SW,222,0.0,4.0,53,0.00,,,0.00,,WeatherCatV1.02B3,2013-03-19 22:12:00,
2013-03-19 15:17:00,68.8,52.0,29.81,SW,218,0.0,5.0,55,0.00,,,0.00,,WeatherCatV1.02B3,2013-03-19 22:17:00,
2013-03-19 15:22:00,68.9,52.5,29.81,SW,219,7.0,7.0,56,0.00,,,0.00,,WeatherCatV1.02B3,2013-03-19 22:22:00,
2013-03-19 15:27:00,68.8,52.5,29.81,SW,232,2.0,7.0,56,0.00,,,0.00,,WeatherCatV1.02B3,2013-03-19 22:27:00,
2013-03-19 15:32:00,68.8,52.9,29.81,WSW,237,4.0,5.0,57,0.00,,,0.00,,WeatherCatV1.02B3,2013-03-19 22:32:00,
2013-03-19 15:37:00,69.0,53.6,29.81,SW,222,0.0,7.0,58,0.00,,,0.00,,WeatherCatV1.02B3,2013-03-19 22:37:00,
2013-03-19 15:42:00,69.0,52.1,29.81,SW,217,1.0,7.0,55,0.00,,,0.00,,WeatherCatV1.02B3,2013-03-19 22:42:00,
2013-03-19 15:47:00,68.9,53.0,29.81,SW,225,0.0,6.0,57,0.00,,,0.00,,WeatherCatV1.02B3,2013-03-19 22:47:00,
2013-03-19 15:52:00,68.6,53.7,29.81,SW,216,2.0,4.0,59,0.00,,,0.00,,WeatherCatV1.02B3,2013-03-19 22:52:00,
2013-03-19 15:57:00,68.8,53.4,29.81,SW,218,4.0,5.0,58,0.00,,,0.00,,WeatherCatV1.02B3,2013-03-19 22:57:00,
2013-03-19 16:02:00,68.8,53.9,29.81,SW,219,5.0,6.0,59,0.00,,,0.00,,WeatherCatV1.02B3,2013-03-19 23:02:00,
2013-03-19 16:07:00,69.0,54.5,29.81,SSW,211,5.0,5.0,60,0.00,,,0.00,,WeatherCatV1.02B3,2013-03-19 23:07:00,
2013-03-19 16:12:00,69.3,53.4,29.81,SSW,211,0.0,7.0,57,0.00,,,0.00,,WeatherCatV1.02B3,2013-03-19 23:12:00,
2013-03-19 16:17:00,69.4,54.0,29.81,SSW,212,3.0,6.0,58,0.00,,,0.00,,WeatherCatV1.02B3,2013-03-19 23:17:00,
2013-03-19 16:22:00,69.3,54.3,29.81,SSW,206,0.0,6.0,59,0.00,,,0.00,,WeatherCatV1.02B3,2013-03-19 23:22:00,
2013-03-19 16:27:00,69.4,54.4,29.81,SSW,200,1.0,5.0,59,0.00,,,0.00,,WeatherCatV1.02B3,2013-03-19 23:27:00,
2013-03-19 16:32:00,69.2,54.3,29.81,SSW,198,1.0,4.0,59,0.00,,,0.00,,WeatherCatV1.02B3,2013-03-19 23:32:00,
2013-03-19 16:37:00,69.1,54.2,29.81,SSW,196,4.0,5.0,59,0.00,,,0.00,,WeatherCatV1.02B3,2013-03-19 23:37:00,
2013-03-19 16:42:00,68.9,54.4,29.81,SSW,198,0.0,6.0,60,0.00,,,0.00,,WeatherCatV1.02B3,2013-03-19 23:42:00,
2013-03-19 16:47:00,68.9,54.4,29.81,SSW,198,0.0,4.0,60,0.00,,,0.00,,WeatherCatV1.02B3,2013-03-19 23:47:00,
2013-03-19 16:52:00,68.9,54.4,29.81,SSW,200,6.0,6.0,60,0.00,,,0.00,,WeatherCatV1.02B3,2013-03-19 23:52:00,
2013-03-19 16:57:00,68.6,55.5,29.81,SW,214,0.0,0.0,63,0.00,,,0.00,,WeatherCatV1.02B3,2013-03-19 23:57:00,
2013-03-19 17:02:00,68.7,55.1,29.81,SW,224,0.0,0.0,62,0.00,,,0.00,,WeatherCatV1.02B3,2013-03-20 00:02:00,
2013-03-19 17:07:00,68.7,55.1,29.81,SW,222,0.0,4.0,62,0.00,,,0.00,,WeatherCatV1.02B3,2013-03-20 00:07:00,
2013-03-19 17:12:00,68.3,54.8,29.81,SW,215,0.0,4.0,62,0.00,,,0.00,,WeatherCatV1.02B3,2013-03-20 00:12:00,
2013-03-19 17:17:00,68.1,55.5,29.81,SSW,210,1.0,4.0,64,0.00,,,0.00,,WeatherCatV1.02B3,2013-03-20 00:17:00,
2013-03-19 17:22:00,67.9,55.3,29.81,SSW,205,0.0,5.0,64,0.00,,,0.00,,WeatherCatV1.02B3,2013-03-20 00:22:00,
2013-03-19 17:27:00,67.7,54.6,29.81,SSW,203,0.0,1.0,63,0.00,,,0.00,,WeatherCatV1.02B3,2013-03-20 00:27:00,
2013-03-19 17:32:00,67.5,54.9,29.81,SSW,203,0.0,0.0,64,0.00,,,0.00,,WeatherCatV1.02B3,2013-03-20 00:32:00,
2013-03-19 17:37:00,67.8,55.6,29.81,South,188,0.0,4.0,65,0.00,,,0.00,,WeatherCatV1.02B3,2013-03-20 00:37:00,
2013-03-19 17:42:00,67.9,54.8,29.81,SSW,201,0.0,0.0,63,0.00,,,0.00,,WeatherCatV1.02B3,2013-03-20 00:42:00,
2013-03-19 17:47:00,67.9,54.8,29.81,SSW,203,1.0,5.0,63,0.00,,,0.00,,WeatherCatV1.02B3,2013-03-20 00:47:00,
2013-03-19 17:52:00,67.6,55.0,29.81,SSW,203,2.0,6.0,64,0.00,,,0.00,,WeatherCatV1.02B3,2013-03-20 00:52:00,
2013-03-19 17:57:00,67.4,55.2,29.81,SSW,203,0.0,4.0,65,0.00,,,0.00,,WeatherCatV1.02B3,2013-03-20 00:57:00,
2013-03-19 18:02:00,67.1,54.9,29.81,SSW,207,1.0,3.0,65,0.00,,,0.00,,WeatherCatV1.02B3,2013-03-20 01:02:00,
2013-03-19 18:07:00,66.7,54.6,29.81,SSW,211,2.0,5.0,65,0.00,,,0.00,,WeatherCatV1.02B3,2013-03-20 01:07:00,
2013-03-19 18:12:00,66.2,54.5,29.81,SSW,209,1.0,3.0,66,0.00,,,0.00,,WeatherCatV1.02B3,2013-03-20 01:12:00,
2013-03-19 18:17:00,65.8,54.5,29.81,SSW,209,0.0,4.0,67,0.00,,,0.00,,WeatherCatV1.02B3,2013-03-20 01:17:00,
2013-03-19 18:22:00,65.5,54.2,29.81,SSW,209,0.0,0.0,67,0.00,,,0.00,,WeatherCatV1.02B3,2013-03-20 01:22:00,
2013-03-19 18:27:00,65.3,54.5,29.81,SSW,209,0.0,0.0,68,0.00,,,0.00,,WeatherCatV1.02B3,2013-03-20 01:27:00,
2013-03-19 18:32:00,64.9,54.5,29.81,SSW,209,0.0,1.0,69,0.00,,,0.00,,WeatherCatV1.02B3,2013-03-20 01:32:00,
2013-03-19 18:37:00,64.5,54.1,29.81,SSW,209,0.0,1.0,69,0.00,,,0.00,,WeatherCatV1.02B3,2013-03-20 01:37:00,
2013-03-19 18:42:00,64.0,54.0,29.81,SSW,209,2.0,2.0,70,0.00,,,0.00,,WeatherCatV1.02B3,2013-03-20 01:42:00,
2013-03-19 18:47:00,63.4,53.8,29.81,SSW,204,0.0,0.0,71,0.00,,,0.00,,WeatherCatV1.02B3,2013-03-20 01:47:00,
2013-03-19 18:52:00,62.9,53.7,29.81,SSW,204,0.0,1.0,72,0.00,,,0.00,,WeatherCatV1.02B3,2013-03-20 01:52:00,
2013-03-19 18:57:00,62.4,53.6,29.81,SSW,205,1.0,1.0,73,0.00,,,0.00,,WeatherCatV1.02B3,2013-03-20 01:57:00,
2013-03-19 19:02:00,61.7,53.3,29.81,SSW,206,4.0,4.0,74,0.00,,,0.00,,WeatherCatV1.02B3,2013-03-20 02:02:00,
2013-03-19 19:07:00,60.8,53.2,29.81,SSW,204,0.0,3.0,76,0.00,,,0.00,,WeatherCatV1.02B3,2013-03-20 02:07:00,
2013-03-19 19:12:00,60.0,53.1,29.81,SSW,204,0.0,0.0,78,0.00,,,0.00,,WeatherCatV1.02B3,2013-03-20 02:12:00,
2013-03-19 19:17:00,59.5,53.0,29.81,SSW,203,0.0,1.0,79,0.00,,,0.00,,WeatherCatV1.02B3,2013-03-20 02:17:00,
2013-03-19 19:22:00,59.2,52.7,29.81,SSW,203,0.0,0.0,79,0.00,,,0.00,,WeatherCatV1.02B3,2013-03-20 02:22:00,
2013-03-19 19:27:00,59.0,52.8,29.81,SSW,204,0.0,1.0,80,0.00,,,0.00,,WeatherCatV1.02B3,2013-03-20 02:27:00,
2013-03-19 19:32:00,58.9,52.7,29.81,SSW,204,0.0,0.0,80,0.00,,,0.00,,WeatherCatV1.02B3,2013-03-20 02:32:00,
2013-03-19 19:37:00,58.8,52.6,29.81,SSW,204,0.0,0.0,80,0.00,,,0.00,,WeatherCatV1.02B3,2013-03-20 02:37:00,
2013-03-19 19:42:00,58.7,52.9,29.81,SSW,204,0.0,0.0,81,0.00,,,0.00,,WeatherCatV1.02B3,2013-03-20 02:42:00,
2013-03-19 19:47:00,58.6,52.8,29.81,SSW,204,0.0,0.0,81,0.00,,,0.00,,WeatherCatV1.02B3,2013-03-20 02:47:00,
2013-03-19 19:52:00,58.7,53.2,29.81,SSW,203,0.0,0.0,82,0.00,,,0.00,,WeatherCatV1.02B3,2013-03-20 02:52:00,
2013-03-19 19:57:00,58.7,52.9,29.81,SSW,204,0.0,0.0,81,0.00,,,0.00,,WeatherCatV1.02B3,2013-03-20 02:57:00,
2013-03-19 20:02:00,56.8,52.3,29.81,West,280,0.0,2.0,85,0.00,,,0.00,0,WeatherCatV1.02B3,2013-03-20 03:02:00,
2013-03-19 20:07:00,56.9,52.4,29.81,West,280,0.0,1.0,85,0.00,,,0.00,0,WeatherCatV1.02B3,2013-03-20 03:07:00,
2013-03-19 20:12:00,57.1,52.3,29.81,West,280,0.0,0.0,84,0.00,,,0.00,0,WeatherCatV1.02B3,2013-03-20 03:12:00,
2013-03-19 20:17:00,56.9,52.1,29.81,West,280,0.0,0.0,84,0.00,,,0.00,0,WeatherCatV1.02B3,2013-03-20 03:17:00,
2013-03-19 20:22:00,56.7,52.2,29.81,West,280,0.0,0.0,85,0.00,,,0.00,0,WeatherCatV1.02B3,2013-03-20 03:22:00,
2013-03-19 20:27:00,56.7,52.6,29.81,West,280,0.0,0.0,86,0.00,,,0.00,0,WeatherCatV1.02B3,2013-03-20 03:27:00,
2013-03-19 20:32:00,56.6,52.1,29.81,WSW,240,1.0,3.0,85,0.00,,,0.00,0,WeatherCatV1.02B3,2013-03-20 03:32:00,
2013-03-19 20:37:00,56.6,52.5,29.81,WSW,249,0.0,1.0,86,0.00,,,0.00,0,WeatherCatV1.02B3,2013-03-20 03:37:00,
2013-03-19 20:42:00,56.4,51.9,29.81,WSW,249,0.0,0.0,85,0.00,,,0.00,0,WeatherCatV1.02B3,2013-03-20 03:42:00,
2013-03-19 20:47:00,56.2,52.1,29.81,WSW,249,0.0,0.0,86,0.00,,,0.00,0,WeatherCatV1.02B3,2013-03-20 03:47:00,
2013-03-19 20:52:00,56.1,52.0,29.81,WSW,249,0.0,0.0,86,0.00,,,0.00,0,WeatherCatV1.02B3,2013-03-20 03:52:00,
2013-03-19 20:57:00,55.9,51.8,29.81,WSW,249,0.0,0.0,86,0.00,,,0.00,0,WeatherCatV1.02B3,2013-03-20 03:57:00,
2013-03-19 21:00:00,55.9,51.8,29.81,WSW,249,0.0,0.0,86,0.00,,,0.00,0,WeatherCatV1.02B3,2013-03-20 04:00:00,
2013-03-19 21:01:00,55.8,51.7,29.81,WSW,249,0.0,0.0,86,0.00,,,0.00,0,WeatherCatV1.02B3,2013-03-20 04:01:00,
2013-03-19 21:06:00,55.9,52.1,29.81,WSW,249,0.0,0.0,87,0.00,,,0.00,0,WeatherCatV1.02B3,2013-03-20 04:06:00,
2013-03-19 21:10:00,56.0,51.9,29.81,WSW,249,0.0,0.0,86,0.00,,,0.00,0,WeatherCatV1.02B3,2013-03-20 04:10:00,
2013-03-19 21:15:00,56.0,51.9,29.81,WSW,249,0.0,0.0,86,0.00,,,0.00,0,WeatherCatV1.02B3,2013-03-20 04:15:00,
2013-03-19 21:20:00,55.8,51.7,29.81,WSW,249,0.0,0.0,86,0.00,,,0.00,0,WeatherCatV1.02B3,2013-03-20 04:20:00,
2013-03-19 21:25:00,55.5,51.7,29.81,WSW,249,0.0,1.0,87,0.00,,,0.00,0,WeatherCatV1.02B3,2013-03-20 04:25:00,
2013-03-19 21:30:00,55.5,52.0,29.81,WSW,249,0.0,0.0,88,0.00,,,0.00,0,WeatherCatV1.02B3,2013-03-20 04:30:00,
2013-03-19 21:35:00,55.5,51.7,29.81,NW,326,0.0,1.0,87,0.00,,,0.00,0,WeatherCatV1.02B3,2013-03-20 04:35:00,
2013-03-19 21:40:00,55.5,51.7,29.81,NNE,28,0.0,0.0,87,0.00,,,0.00,0,WeatherCatV1.02B3,2013-03-20 04:40:00,
2013-03-19 21:45:00,55.6,51.8,29.81,NW,316,1.0,1.0,87,0.00,,,0.00,0,WeatherCatV1.02B3,2013-03-20 04:45:00,
2013-03-19 21:50:00,55.9,52.1,29.81,NW,323,0.0,0.0,87,0.00,,,0.00,0,WeatherCatV1.02B3,2013-03-20 04:50:00,
2013-03-19 21:55:00,56.1,52.3,29.81,NW,323,1.0,1.0,87,0.00,,,0.00,0,WeatherCatV1.02B3,2013-03-20 04:55:00,
2013-03-19 22:00:00,56.1,52.0,29.81,North,5,0.0,2.0,86,0.00,,,0.00,0,WeatherCatV1.02B3,2013-03-20 05:00:00,
2013-03-19 22:05:00,56.0,51.9,29.81,West,273,1.0,2.0,86,0.00,,,0.00,0,WeatherCatV1.02B3,2013-03-20 05:05:00,
2013-03-19 22:10:00,55.9,52.1,29.81,West,273,0.0,0.0,87,0.00,,,0.00,0,WeatherCatV1.02B3,2013-03-20 05:10:00,
2013-03-19 22:15:00,55.9,52.1,29.81,West,273,0.0,0.0,87,0.00,,,0.00,0,WeatherCatV1.02B3,2013-03-20 05:15:00,
2013-03-19 22:20:00,55.6,51.8,29.81,West,273,0.0,0.0,87,0.00,,,0.00,0,WeatherCatV1.02B3,2013-03-20 05:20:00,
2013-03-19 22:25:00,55.4,51.6,29.81,West,273,1.0,1.0,87,0.00,,,0.00,0,WeatherCatV1.02B3,2013-03-20 05:25:00,
2013-03-19 22:30:00,54.9,51.4,29.81,West,273,0.0,0.0,88,0.00,,,0.00,0,WeatherCatV1.02B3,2013-03-20 05:30:00,
2013-03-19 22:35:00,54.7,51.5,29.81,West,273,0.0,0.0,89,0.00,,,0.00,0,WeatherCatV1.02B3,2013-03-20 05:35:00,
2013-03-19 22:40:00,54.8,51.6,29.81,West,273,0.0,0.0,89,0.00,,,0.00,0,WeatherCatV1.02B3,2013-03-20 05:40:00,
2013-03-19 22:45:00,54.8,51.6,29.81,West,273,0.0,0.0,89,0.00,,,0.00,0,WeatherCatV1.02B3,2013-03-20 05:45:00,
2013-03-19 22:50:00,54.8,51.6,29.81,West,273,0.0,0.0,89,0.00,,,0.00,0,WeatherCatV1.02B3,2013-03-20 05:50:00,
2013-03-19 22:55:00,54.5,51.3,29.81,West,273,0.0,0.0,89,0.00,,,0.00,0,WeatherCatV1.02B3,2013-03-20 05:55:00,
2013-03-19 23:00:00,54.4,51.2,29.81,WNW,291,0.0,1.0,89,0.00,,,0.00,0,WeatherCatV1.02B3,2013-03-20 06:00:00,
2013-03-19 23:05:00,54.5,51.3,29.81,WNW,296,0.0,0.0,89,0.00,,,0.00,0,WeatherCatV1.02B3,2013-03-20 06:05:00,
2013-03-19 23:10:00,54.5,51.3,29.81,WNW,296,0.0,0.0,89,0.00,,,0.00,0,WeatherCatV1.02B3,2013-03-20 06:10:00,
2013-03-19 23:15:00,54.2,51.0,29.81,WNW,296,0.0,0.0,89,0.00,,,0.00,0,WeatherCatV1.02B3,2013-03-20 06:15:00,
2013-03-19 23:20:00,54.1,50.9,29.81,WNW,296,0.0,0.0,89,0.00,,,0.00,0,WeatherCatV1.02B3,2013-03-20 06:20:00,
2013-03-19 23:25:00,53.8,50.9,29.81,WNW,296,0.0,0.0,90,0.00,,,0.00,0,WeatherCatV1.02B3,2013-03-20 06:25:00,
2013-03-19 23:30:00,53.8,50.9,29.81,WNW,296,0.0,0.0,90,0.00,,,0.00,0,WeatherCatV1.02B3,2013-03-20 06:30:00,
2013-03-19 23:35:00,53.5,50.6,29.81,WNW,296,0.0,0.0,90,0.00,,,0.00,0,WeatherCatV1.02B3,2013-03-20 06:35:00,
2013-03-19 23:40:00,53.4,50.5,29.81,WNW,296,0.0,0.0,90,0.00,,,0.00,0,WeatherCatV1.02B3,2013-03-20 06:40:00,
2013-03-19 23:45:00,53.2,50.6,29.81,WNW,296,0.0,0.0,91,0.00,,,0.00,0,WeatherCatV1.02B3,2013-03-20 06:45:00,
2013-03-19 23:50:00,53.4,50.8,29.81,WNW,296,0.0,1.0,91,0.00,,,0.00,0,WeatherCatV1.02B3,2013-03-20 06:50:00,
2013-03-19 23:55:00,53.7,51.1,29.81,WNW,296,0.0,0.0,91,0.00,,,0.00,0,WeatherCatV1.02B3,2013-03-20 06:55:00,